Time,TemperatureF,DewpointF,PressureIn,WindDirection,WindDirectionDegrees,WindSpeedMPH,WindSpeedGustMPH,Humidity,HourlyPrecipIn,Conditions,Clouds,dailyrainin,SoftwareType,DateUTC
2013-02-16 00:00:00,-4.1,-8.4,30.57,West,259,0.0,0.0,81,0.00,,,0.00,LWC V2.10 B1813,2013-02-16 09:00:00,
2013-02-16 00:05:00,-4.3,-8.4,30.57,West,261,2.0,2.0,82,0.00,,,0.00,LWC V2.10 B1813,2013-02-16 09:05:00,
2013-02-16 00:10:00,-4.3,-8.4,30.57,West,263,0.0,1.0,82,0.00,,,0.00,LWC V2.10 B1813,2013-02-16 09:10:00,
2013-02-16 00:15:00,-4.3,-8.4,30.58,West,261,0.0,0.0,82,0.00,,,0.00,LWC V2.10 B1813,2013-02-16 09:15:00,
2013-02-16 00:20:00,-4.5,-8.6,30.58,West,260,1.0,2.0,82,0.00,,,0.00,LWC V2.10 B1813,2013-02-16 09:20:00,
2013-02-16 00:25:00,-4.6,-8.7,30.58,West,259,2.0,3.0,82,0.00,,,0.00,LWC V2.10 B1813,2013-02-16 09:25:00,
2013-02-16 00:30:00,-4.6,-8.4,30.58,East,90,3.0,5.0,83,0.00,,,0.00,LWC V2.10 B1813,2013-02-16 09:30:00,
2013-02-16 00:35:00,-4.6,-8.4,30.58,East,83,5.0,5.0,83,0.00,,,0.00,LWC V2.10 B1813,2013-02-16 09:35:00,
2013-02-16 00:40:00,-4.5,-8.3,30.58,ENE,64,4.0,4.0,83,0.00,,,0.00,LWC V2.10 B1813,2013-02-16 09:40:00,
2013-02-16 00:45:00,-4.5,-8.3,30.58,East,82,3.0,3.0,83,0.00,,,0.00,LWC V2.10 B1813,2013-02-16 09:45:00,
2013-02-16 00:50:00,-4.5,-8.3,30.58,East,90,2.0,3.0,83,0.00,,,0.00,LWC V2.10 B1813,2013-02-16 09:50:00,
2013-02-16 00:55:00,-4.5,-8.3,30.58,East,90,2.0,3.0,83,0.00,,,0.00,LWC V2.10 B1813,2013-02-16 09:55:00,
2013-02-16 01:00:00,-4.4,-8.2,30.58,East,90,1.0,2.0,83,0.00,,,0.00,LWC V2.10 B1813,2013-02-16 10:00:00,
2013-02-16 01:05:00,-4.2,-8.0,30.58,East,90,1.0,2.0,83,0.00,,,0.00,LWC V2.10 B1813,2013-02-16 10:05:00,
2013-02-16 01:10:00,-4.2,-8.0,30.58,East,90,2.0,2.0,83,0.00,,,0.00,LWC V2.10 B1813,2013-02-16 10:10:00,
2013-02-16 01:15:00,-4.4,-8.2,30.59,East,90,1.0,2.0,83,0.00,,,0.00,LWC V2.10 B1813,2013-02-16 10:15:00,
2013-02-16 01:20:00,-4.4,-8.2,30.59,East,90,1.0,1.0,83,0.00,,,0.00,LWC V2.10 B1813,2013-02-16 10:20:00,
2013-02-16 01:25:00,-4.5,-8.6,30.59,East,90,1.0,1.0,82,0.00,,,0.00,LWC V2.10 B1813,2013-02-16 10:25:00,
2013-02-16 01:30:00,-4.8,-8.9,30.59,East,90,2.0,2.0,82,0.00,,,0.00,LWC V2.10 B1813,2013-02-16 10:30:00,
2013-02-16 01:35:00,-5.0,-9.1,30.59,East,90,2.0,2.0,82,0.00,,,0.00,LWC V2.10 B1813,2013-02-16 10:35:00,
2013-02-16 01:40:00,-5.2,-9.0,30.59,East,90,2.0,3.0,83,0.00,,,0.00,LWC V2.10 B1813,2013-02-16 10:40:00,
2013-02-16 01:45:00,-5.1,-8.9,30.59,ENE,71,3.0,4.0,83,0.00,,,0.00,LWC V2.10 B1813,2013-02-16 10:45:00,
2013-02-16 01:50:00,-4.8,-8.4,30.59,ENE,67,3.0,4.0,84,0.00,,,0.00,LWC V2.10 B1813,2013-02-16 10:50:00,
2013-02-16 01:55:00,-4.2,-7.8,30.59,ENE,67,2.0,3.0,84,0.00,,,0.00,LWC V2.10 B1813,2013-02-16 10:55:00,
2013-02-16 02:00:00,-3.9,-7.5,30.59,ENE,67,1.0,2.0,84,0.00,,,0.00,LWC V2.10 B1813,2013-02-16 11:00:00,
2013-02-16 02:05:00,-3.6,-7.2,30.60,East,84,1.0,3.0,84,0.00,,,0.00,LWC V2.10 B1813,2013-02-16 11:05:00,
2013-02-16 02:10:00,-3.6,-7.4,30.60,ENE,78,2.0,3.0,83,0.00,,,0.00,LWC V2.10 B1813,2013-02-16 11:10:00,
2013-02-16 02:15:00,-3.7,-7.5,30.60,ENE,78,2.0,3.0,83,0.00,,,0.00,LWC V2.10 B1813,2013-02-16 11:15:00,
2013-02-16 02:20:00,-3.7,-7.5,30.60,ENE,78,2.0,3.0,83,0.00,,,0.00,LWC V2.10 B1813,2013-02-16 11:20:00,
2013-02-16 02:25:00,-3.6,-7.4,30.60,ENE,76,2.0,3.0,83,0.00,,,0.00,LWC V2.10 B1813,2013-02-16 11:25:00,
2013-02-16 02:30:00,-3.6,-7.4,30.60,ENE,78,2.0,3.0,83,0.00,,,0.00,LWC V2.10 B1813,2013-02-16 11:30:00,
2013-02-16 02:35:00,-3.5,-7.3,30.60,ENE,78,2.0,3.0,83,0.00,,,0.00,LWC V2.10 B1813,2013-02-16 11:35:00,
2013-02-16 02:40:00,-3.4,-7.2,30.60,ENE,77,2.0,3.0,83,0.00,,,0.00,LWC V2.10 B1813,2013-02-16 11:40:00,
2013-02-16 02:45:00,-3.4,-7.2,30.60,ENE,78,1.0,2.0,83,0.00,,,0.00,LWC V2.10 B1813,2013-02-16 11:45:00,
2013-02-16 02:50:00,-3.4,-7.2,30.60,ENE,78,2.0,2.0,83,0.00,,,0.00,LWC V2.10 B1813,2013-02-16 11:50:00,
2013-02-16 02:55:00,-3.5,-7.3,30.60,ENE,78,1.0,2.0,83,0.00,,,0.00,LWC V2.10 B1813,2013-02-16 11:55:00,
2013-02-16 03:00:00,-3.5,-7.3,30.60,ENE,78,1.0,2.0,83,0.00,,,0.00,LWC V2.10 B1813,2013-02-16 12:00:00,
2013-02-16 03:05:00,-3.6,-7.4,30.61,ENE,78,1.0,2.0,83,0.00,,,0.00,LWC V2.10 B1813,2013-02-16 12:05:00,
2013-02-16 03:10:00,-3.7,-7.5,30.61,ENE,78,1.0,2.0,83,0.00,,,0.00,LWC V2.10 B1813,2013-02-16 12:10:00,
2013-02-16 03:15:00,-3.8,-7.6,30.61,ENE,77,0.0,1.0,83,0.00,,,0.00,LWC V2.10 B1813,2013-02-16 12:15:00,
2013-02-16 03:20:00,-3.9,-7.7,30.61,ENE,78,0.0,0.0,83,0.00,,,0.00,LWC V2.10 B1813,2013-02-16 12:20:00,
2013-02-16 03:25:00,-3.9,-7.7,30.61,ENE,78,0.0,0.0,83,0.00,,,0.00,LWC V2.10 B1813,2013-02-16 12:25:00,
2013-02-16 03:30:00,-3.9,-7.7,30.62,ENE,78,0.0,0.0,83,0.00,,,0.00,LWC V2.10 B1813,2013-02-16 12:30:00,
2013-02-16 03:35:00,-4.0,-7.8,30.61,ENE,78,0.0,0.0,83,0.00,,,0.00,LWC V2.10 B1813,2013-02-16 12:35:00,
2013-02-16 03:40:00,-4.0,-8.1,30.61,ENE,78,0.0,0.0,82,0.00,,,0.00,LWC V2.10 B1813,2013-02-16 12:40:00,
2013-02-16 03:45:00,-4.0,-7.8,30.61,ENE,78,0.0,0.0,83,0.00,,,0.00,LWC V2.10 B1813,2013-02-16 12:45:00,
2013-02-16 03:50:00,-4.0,-8.1,30.62,ENE,78,0.0,0.0,82,0.00,,,0.00,LWC V2.10 B1813,2013-02-16 12:50:00,
2013-02-16 03:55:00,-4.1,-8.2,30.62,ENE,78,0.0,0.0,82,0.00,,,0.00,LWC V2.10 B1813,2013-02-16 12:55:00,
2013-02-16 04:00:00,-4.1,-8.2,30.62,ENE,78,0.0,0.0,82,0.00,,,0.00,LWC V2.10 B1813,2013-02-16 13:00:00,
2013-02-16 04:05:00,-4.1,-8.2,30.62,ENE,78,1.0,2.0,82,0.00,,,0.00,LWC V2.10 B1813,2013-02-16 13:05:00,
2013-02-16 04:10:00,-4.1,-7.9,30.62,East,79,0.0,2.0,83,0.00,,,0.00,LWC V2.10 B1813,2013-02-16 13:10:00,
2013-02-16 04:15:00,-4.0,-7.8,30.62,ENE,78,0.0,2.0,83,0.00,,,0.00,LWC V2.10 B1813,2013-02-16 13:15:00,
2013-02-16 04:20:00,-4.0,-7.8,30.62,ENE,78,0.0,1.0,83,0.00,,,0.00,LWC V2.10 B1813,2013-02-16 13:20:00,
2013-02-16 04:25:00,-4.0,-7.8,30.62,ENE,78,1.0,1.0,83,0.00,,,0.00,LWC V2.10 B1813,2013-02-16 13:25:00,
2013-02-16 04:30:00,-4.0,-7.8,30.62,ENE,78,1.0,2.0,83,0.00,,,0.00,LWC V2.10 B1813,2013-02-16 13:30:00,
2013-02-16 04:35:00,-4.1,-7.9,30.62,ENE,78,1.0,2.0,83,0.00,,,0.00,LWC V2.10 B1813,2013-02-16 13:35:00,
2013-02-16 04:40:00,-4.0,-7.8,30.62,ENE,78,1.0,1.0,83,0.00,,,0.00,LWC V2.10 B1813,2013-02-16 13:40:00,
2013-02-16 04:45:00,-4.1,-7.9,30.62,ENE,78,0.0,0.0,83,0.00,,,0.00,LWC V2.10 B1813,2013-02-16 13:45:00,
2013-02-16 04:50:00,-4.1,-7.9,30.62,ENE,78,0.0,0.0,83,0.00,,,0.00,LWC V2.10 B1813,2013-02-16 13:50:00,
2013-02-16 04:55:00,-4.2,-8.0,30.62,ENE,78,0.0,0.0,83,0.00,,,0.00,LWC V2.10 B1813,2013-02-16 13:55:00,
2013-02-16 05:00:00,-4.5,-8.6,30.62,ENE,78,0.0,0.0,82,0.00,,,0.00,LWC V2.10 B1813,2013-02-16 14:00:00,
2013-02-16 05:05:00,-4.6,-8.7,30.62,ENE,78,0.0,0.0,82,0.00,,,0.00,LWC V2.10 B1813,2013-02-16 14:05:00,
2013-02-16 05:10:00,-4.8,-8.9,30.62,East,79,0.0,0.0,82,0.00,,,0.00,LWC V2.10 B1813,2013-02-16 14:10:00,
2013-02-16 05:15:00,-4.9,-9.0,30.62,ENE,78,0.0,0.0,82,0.00,,,0.00,LWC V2.10 B1813,2013-02-16 14:15:00,
2013-02-16 05:20:00,-5.0,-9.1,30.62,ENE,78,0.0,0.0,82,0.00,,,0.00,LWC V2.10 B1813,2013-02-16 14:20:00,
2013-02-16 05:25:00,-5.2,-9.0,30.62,ENE,78,0.0,0.0,83,0.00,,,0.00,LWC V2.10 B1813,2013-02-16 14:25:00,
2013-02-16 05:30:00,-5.2,-9.0,30.62,ENE,77,0.0,0.0,83,0.00,,,0.00,LWC V2.10 B1813,2013-02-16 14:30:00,
2013-02-16 05:35:00,-5.3,-9.4,30.62,ENE,78,0.0,0.0,82,0.00,,,0.00,LWC V2.10 B1813,2013-02-16 14:35:00,
2013-02-16 05:40:00,-5.4,-9.5,30.62,East,80,1.0,1.0,82,0.00,,,0.00,LWC V2.10 B1813,2013-02-16 14:40:00,
2013-02-16 05:45:00,-5.6,-9.6,30.62,ENE,78,1.0,2.0,82,0.00,,,0.00,LWC V2.10 B1813,2013-02-16 14:45:00,
2013-02-16 05:50:00,-5.9,-9.9,30.63,ENE,78,0.0,1.0,82,0.00,,,0.00,LWC V2.10 B1813,2013-02-16 14:50:00,
2013-02-16 05:55:00,-6.1,-10.4,30.62,ENE,78,1.0,1.0,81,0.00,,,0.00,LWC V2.10 B1813,2013-02-16 14:55:00,
2013-02-16 06:00:00,-6.2,-10.2,30.62,ENE,78,2.0,2.0,82,0.00,,,0.00,LWC V2.10 B1813,2013-02-16 15:00:00,
2013-02-16 06:05:00,-6.4,-10.7,30.62,ENE,78,1.0,2.0,81,0.00,,,0.00,LWC V2.10 B1813,2013-02-16 15:05:00,
2013-02-16 06:10:00,-6.5,-10.5,30.63,ENE,78,2.0,2.0,82,0.00,,,0.00,LWC V2.10 B1813,2013-02-16 15:10:00,
2013-02-16 06:15:00,-6.5,-10.5,30.63,ENE,78,1.0,2.0,82,0.00,,,0.00,LWC V2.10 B1813,2013-02-16 15:15:00,
2013-02-16 06:20:00,-6.4,-10.4,30.63,ENE,78,1.0,2.0,82,0.00,,,0.00,LWC V2.10 B1813,2013-02-16 15:20:00,
2013-02-16 06:25:00,-6.4,-10.4,30.63,ENE,78,2.0,2.0,82,0.00,,,0.00,LWC V2.10 B1813,2013-02-16 15:25:00,
2013-02-16 06:30:00,-6.3,-10.3,30.63,ENE,78,2.0,3.0,82,0.00,,,0.00,LWC V2.10 B1813,2013-02-16 15:30:00,
2013-02-16 06:35:00,-6.3,-10.1,30.63,ENE,78,2.0,2.0,83,0.00,,,0.00,LWC V2.10 B1813,2013-02-16 15:35:00,
2013-02-16 06:40:00,-6.2,-10.2,30.63,East,79,3.0,3.0,82,0.00,,,0.00,LWC V2.10 B1813,2013-02-16 15:40:00,
2013-02-16 06:45:00,-6.3,-10.3,30.63,East,79,1.0,2.0,82,0.00,,,0.00,LWC V2.10 B1813,2013-02-16 15:45:00,
2013-02-16 06:50:00,-6.4,-10.4,30.64,East,79,2.0,2.0,82,0.00,,,0.00,LWC V2.10 B1813,2013-02-16 15:50:00,
2013-02-16 06:55:00,-6.5,-10.5,30.64,ENE,78,0.0,1.0,82,0.00,,,0.00,LWC V2.10 B1813,2013-02-16 15:55:00,
2013-02-16 07:00:00,-6.6,-10.6,30.64,ENE,78,1.0,2.0,82,0.00,,,0.00,LWC V2.10 B1813,2013-02-16 16:00:00,
2013-02-16 07:05:00,-6.6,-10.6,30.64,East,82,0.0,2.0,82,0.00,,,0.00,LWC V2.10 B1813,2013-02-16 16:05:00,
2013-02-16 07:10:00,-6.7,-10.7,30.64,East,88,1.0,2.0,82,0.00,,,0.00,LWC V2.10 B1813,2013-02-16 16:10:00,
2013-02-16 07:15:00,-6.7,-10.5,30.64,East,88,1.0,1.0,83,0.00,,,0.00,LWC V2.10 B1813,2013-02-16 16:15:00,
2013-02-16 07:20:00,-6.7,-10.5,30.64,East,88,1.0,2.0,83,0.00,,,0.00,LWC V2.10 B1813,2013-02-16 16:20:00,
2013-02-16 07:25:00,-6.6,-10.4,30.64,East,90,2.0,2.0,83,0.00,,,0.00,LWC V2.10 B1813,2013-02-16 16:25:00,
2013-02-16 07:30:00,-6.7,-10.7,30.65,East,91,1.0,2.0,82,0.00,,,0.00,LWC V2.10 B1813,2013-02-16 16:30:00,
2013-02-16 07:35:00,-6.8,-10.8,30.65,East,99,1.0,2.0,82,0.00,,,0.00,LWC V2.10 B1813,2013-02-16 16:35:00,
2013-02-16 07:40:00,-6.9,-10.9,30.65,ESE,106,2.0,2.0,82,0.00,,,0.00,LWC V2.10 B1813,2013-02-16 16:40:00,
2013-02-16 07:45:00,-7.0,-11.0,30.65,ESE,107,1.0,2.0,82,0.00,,,0.00,LWC V2.10 B1813,2013-02-16 16:45:00,
2013-02-16 07:50:00,-7.1,-11.1,30.65,ESE,107,1.0,2.0,82,0.00,,,0.00,LWC V2.10 B1813,2013-02-16 16:50:00,
2013-02-16 07:55:00,-7.2,-11.2,30.65,ESE,107,1.0,2.0,82,0.00,,,0.00,LWC V2.10 B1813,2013-02-16 16:55:00,
2013-02-16 08:00:00,-7.2,-11.2,30.65,ESE,107,1.0,2.0,82,0.00,,,0.00,LWC V2.10 B1813,2013-02-16 17:00:00,
2013-02-16 08:05:00,-7.3,-11.3,30.65,ESE,107,2.0,2.0,82,0.00,,,0.00,LWC V2.10 B1813,2013-02-16 17:05:00,
2013-02-16 08:10:00,-7.5,-11.3,30.65,ESE,107,1.0,2.0,83,0.00,,,0.00,LWC V2.10 B1813,2013-02-16 17:10:00,
2013-02-16 08:15:00,-7.5,-11.3,30.65,ESE,106,2.0,2.0,83,0.00,,,0.00,LWC V2.10 B1813,2013-02-16 17:15:00,
2013-02-16 08:20:00,-7.5,-11.3,30.65,ESE,106,2.0,3.0,83,0.00,,,0.00,LWC V2.10 B1813,2013-02-16 17:20:00,
2013-02-16 08:25:00,-7.6,-11.6,30.65,ESE,107,0.0,2.0,82,0.00,,,0.00,LWC V2.10 B1813,2013-02-16 17:25:00,
2013-02-16 08:30:00,-7.7,-11.7,30.65,ESE,107,2.0,2.0,82,0.00,,,0.00,LWC V2.10 B1813,2013-02-16 17:30:00,
2013-02-16 08:35:00,-7.6,-11.4,30.65,ESE,106,1.0,2.0,83,0.00,,,0.00,LWC V2.10 B1813,2013-02-16 17:35:00,
2013-02-16 08:40:00,-7.5,-11.3,30.65,ESE,105,2.0,2.0,83,0.00,,,0.00,LWC V2.10 B1813,2013-02-16 17:40:00,
2013-02-16 08:45:00,-7.4,-11.2,30.65,ESE,105,1.0,2.0,83,0.00,,,0.00,LWC V2.10 B1813,2013-02-16 17:45:00,
2013-02-16 08:50:00,-7.1,-10.6,30.65,ESE,105,1.0,2.0,84,0.00,,,0.00,LWC V2.10 B1813,2013-02-16 17:50:00,
2013-02-16 08:55:00,-6.8,-10.3,30.65,ESE,106,0.0,1.0,84,0.00,,,0.00,LWC V2.10 B1813,2013-02-16 17:55:00,
2013-02-16 09:00:00,-6.5,-10.3,30.65,ESE,106,0.0,0.0,83,0.00,,,0.00,LWC V2.10 B1813,2013-02-16 18:00:00,
2013-02-16 09:05:00,-6.5,-10.3,30.64,ESE,105,0.0,0.0,83,0.00,,,0.00,LWC V2.10 B1813,2013-02-16 18:05:00,
2013-02-16 09:10:00,-6.3,-10.3,30.64,ESE,105,0.0,0.0,82,0.00,,,0.00,LWC V2.10 B1813,2013-02-16 18:10:00,
2013-02-16 09:15:00,-6.2,-10.2,30.64,ESE,105,0.0,1.0,82,0.00,,,0.00,LWC V2.10 B1813,2013-02-16 18:15:00,
2013-02-16 09:20:00,-5.9,-9.7,30.64,ESE,106,0.0,0.0,83,0.00,,,0.00,LWC V2.10 B1813,2013-02-16 18:20:00,
2013-02-16 09:25:00,-5.5,-9.3,30.64,ESE,105,0.0,1.0,83,0.00,,,0.00,LWC V2.10 B1813,2013-02-16 18:25:00,
2013-02-16 09:30:00,-5.3,-9.4,30.64,ESE,105,0.0,0.0,82,0.00,,,0.00,LWC V2.10 B1813,2013-02-16 18:30:00,
2013-02-16 09:35:00,-5.2,-9.3,30.64,ESE,106,0.0,0.0,82,0.00,,,0.00,LWC V2.10 B1813,2013-02-16 18:35:00,
2013-02-16 09:40:00,-5.0,-9.3,30.64,ESE,105,0.0,0.0,81,0.00,,,0.00,LWC V2.10 B1813,2013-02-16 18:40:00,
2013-02-16 09:45:00,-5.0,-9.3,30.64,ESE,105,0.0,0.0,81,0.00,,,0.00,LWC V2.10 B1813,2013-02-16 18:45:00,
2013-02-16 09:50:00,-4.9,-9.0,30.64,ESE,105,0.0,0.0,82,0.00,,,0.00,LWC V2.10 B1813,2013-02-16 18:50:00,
2013-02-16 09:55:00,-4.8,-8.9,30.64,ESE,105,0.0,0.0,82,0.00,,,0.00,LWC V2.10 B1813,2013-02-16 18:55:00,
2013-02-16 10:00:00,-5.1,-9.4,30.64,ESE,105,1.0,1.0,81,0.00,,,0.00,LWC V2.10 B1813,2013-02-16 19:00:00,
2013-02-16 10:05:00,-5.2,-9.3,30.65,ESE,105,1.0,1.0,82,0.00,,,0.00,LWC V2.10 B1813,2013-02-16 19:05:00,
2013-02-16 10:10:00,-4.9,-9.0,30.65,ESE,105,1.0,2.0,82,0.00,,,0.00,LWC V2.10 B1813,2013-02-16 19:10:00,
2013-02-16 10:15:00,-4.8,-8.9,30.64,ENE,78,2.0,2.0,82,0.00,,,0.00,LWC V2.10 B1813,2013-02-16 19:15:00,
2013-02-16 10:20:00,-4.6,-8.7,30.65,ENE,78,1.0,2.0,82,0.00,,,0.00,LWC V2.10 B1813,2013-02-16 19:20:00,
2013-02-16 10:25:00,-4.4,-8.5,30.65,ESE,106,2.0,3.0,82,0.00,,,0.00,LWC V2.10 B1813,2013-02-16 19:25:00,
2013-02-16 10:30:00,-4.4,-8.5,30.65,ESE,106,1.0,2.0,82,0.00,,,0.00,LWC V2.10 B1813,2013-02-16 19:30:00,
2013-02-16 10:35:00,-4.6,-8.7,30.65,ESE,106,2.0,3.0,82,0.00,,,0.00,LWC V2.10 B1813,2013-02-16 19:35:00,
2013-02-16 10:40:00,-4.8,-8.9,30.65,ESE,107,2.0,2.0,82,0.00,,,0.00,LWC V2.10 B1813,2013-02-16 19:40:00,
2013-02-16 10:45:00,-5.0,-9.1,30.65,ESE,113,2.0,3.0,82,0.00,,,0.00,LWC V2.10 B1813,2013-02-16 19:45:00,
2013-02-16 10:50:00,-5.3,-9.4,30.65,ESE,113,0.0,1.0,82,0.00,,,0.00,LWC V2.10 B1813,2013-02-16 19:50:00,
2013-02-16 10:55:00,-5.3,-9.4,30.65,ESE,113,0.0,0.0,82,0.00,,,0.00,LWC V2.10 B1813,2013-02-16 19:55:00,
2013-02-16 11:00:00,-5.2,-9.3,30.65,ESE,113,0.0,0.0,82,0.00,,,0.00,LWC V2.10 B1813,2013-02-16 20:00:00,
2013-02-16 11:05:00,-4.9,-9.0,30.65,ESE,113,0.0,0.0,82,0.00,,,0.00,LWC V2.10 B1813,2013-02-16 20:05:00,
2013-02-16 11:10:00,-4.6,-8.4,30.65,ESE,113,0.0,0.0,83,0.00,,,0.00,LWC V2.10 B1813,2013-02-16 20:10:00,
2013-02-16 11:15:00,-4.3,-8.1,30.65,ESE,113,0.0,0.0,83,0.00,,,0.00,LWC V2.10 B1813,2013-02-16 20:15:00,
2013-02-16 11:20:00,-4.3,-8.4,30.65,ESE,113,1.0,1.0,82,0.00,,,0.00,LWC V2.10 B1813,2013-02-16 20:20:00,
2013-02-16 11:25:00,-4.2,-8.3,30.65,ESE,113,0.0,0.0,82,0.00,,,0.00,LWC V2.10 B1813,2013-02-16 20:25:00,
2013-02-16 11:30:00,-4.1,-8.2,30.65,ESE,113,0.0,0.0,82,0.00,,,0.00,LWC V2.10 B1813,2013-02-16 20:30:00,
2013-02-16 11:35:00,-3.9,-8.0,30.65,ESE,113,0.0,0.0,82,0.00,,,0.00,LWC V2.10 B1813,2013-02-16 20:35:00,
2013-02-16 11:40:00,-3.7,-7.8,30.65,ESE,113,0.0,0.0,82,0.00,,,0.00,LWC V2.10 B1813,2013-02-16 20:40:00,
2013-02-16 11:45:00,-3.6,-7.7,30.65,SSE,155,1.0,3.0,82,0.00,,,0.00,LWC V2.10 B1813,2013-02-16 20:45:00,
2013-02-16 11:50:00,-3.8,-7.9,30.66,SSE,155,1.0,2.0,82,0.00,,,0.00,LWC V2.10 B1813,2013-02-16 20:50:00,
2013-02-16 11:55:00,-3.9,-8.0,30.66,SSE,155,0.0,0.0,82,0.00,,,0.00,LWC V2.10 B1813,2013-02-16 20:55:00,
2013-02-16 12:00:00,-3.9,-8.0,30.65,SSE,155,0.0,0.0,82,0.00,,,0.00,LWC V2.10 B1813,2013-02-16 21:00:00,
2013-02-16 12:05:00,-3.7,-7.8,30.65,SSE,155,0.0,0.0,82,0.00,,,0.00,LWC V2.10 B1813,2013-02-16 21:05:00,
2013-02-16 12:10:00,-3.8,-8.1,30.65,SSE,155,0.0,0.0,81,0.00,,,0.00,LWC V2.10 B1813,2013-02-16 21:10:00,
2013-02-16 12:15:00,-3.8,-7.9,30.65,SSE,155,0.0,1.0,82,0.00,,,0.00,LWC V2.10 B1813,2013-02-16 21:15:00,
2013-02-16 12:20:00,-3.6,-7.7,30.65,SSE,155,1.0,1.0,82,0.00,,,0.00,LWC V2.10 B1813,2013-02-16 21:20:00,
2013-02-16 12:25:00,-3.2,-7.0,30.65,SSE,156,0.0,2.0,83,0.00,,,0.00,LWC V2.10 B1813,2013-02-16 21:25:00,
2013-02-16 12:30:00,-2.9,-6.8,30.65,SSW,203,1.0,2.0,83,0.00,,,0.00,LWC V2.10 B1813,2013-02-16 21:30:00,
2013-02-16 12:35:00,-2.5,-6.4,30.65,SSW,203,0.0,1.0,83,0.00,,,0.00,LWC V2.10 B1813,2013-02-16 21:35:00,
2013-02-16 12:40:00,-2.2,-6.3,30.65,SSW,203,0.0,0.0,82,0.00,,,0.00,LWC V2.10 B1813,2013-02-16 21:40:00,
2013-02-16 12:45:00,-1.8,-5.7,30.64,SSW,203,1.0,1.0,83,0.00,,,0.00,LWC V2.10 B1813,2013-02-16 21:45:00,
2013-02-16 12:50:00,-1.4,-5.3,30.64,SSW,203,0.0,0.0,83,0.00,,,0.00,LWC V2.10 B1813,2013-02-16 21:50:00,
2013-02-16 12:55:00,-1.0,-4.9,30.64,SSW,203,0.0,0.0,83,0.00,,,0.00,LWC V2.10 B1813,2013-02-16 21:55:00,
2013-02-16 13:00:00,-0.6,-4.8,30.64,SSW,203,0.0,1.0,82,0.00,,,0.00,LWC V2.10 B1813,2013-02-16 22:00:00,
2013-02-16 13:05:00,-0.4,-4.6,30.65,South,173,3.0,3.0,82,0.00,,,0.00,LWC V2.10 B1813,2013-02-16 22:05:00,
2013-02-16 13:10:00,-0.6,-5.0,30.65,South,171,0.0,1.0,81,0.00,,,0.00,LWC V2.10 B1813,2013-02-16 22:10:00,
2013-02-16 13:15:00,-0.8,-5.2,30.64,South,173,0.0,1.0,81,0.00,,,0.00,LWC V2.10 B1813,2013-02-16 22:15:00,
2013-02-16 13:20:00,-1.1,-5.5,30.64,SE,125,1.0,2.0,81,0.00,,,0.00,LWC V2.10 B1813,2013-02-16 22:20:00,
2013-02-16 13:25:00,-1.2,-5.6,30.64,ESE,123,1.0,2.0,81,0.00,,,0.00,LWC V2.10 B1813,2013-02-16 22:25:00,
2013-02-16 13:30:00,-1.2,-5.6,30.64,East,98,0.0,3.0,81,0.00,,,0.00,LWC V2.10 B1813,2013-02-16 22:30:00,
2013-02-16 13:35:00,-1.1,-5.5,30.64,ENE,67,3.0,4.0,81,0.00,,,0.00,LWC V2.10 B1813,2013-02-16 22:35:00,
2013-02-16 13:40:00,-1.0,-5.4,30.64,ENE,68,3.0,3.0,81,0.00,,,0.00,LWC V2.10 B1813,2013-02-16 22:40:00,
2013-02-16 13:45:00,-1.0,-5.4,30.64,ENE,68,3.0,3.0,81,0.00,,,0.00,LWC V2.10 B1813,2013-02-16 22:45:00,
2013-02-16 13:50:00,-1.0,-5.4,30.64,ENE,67,0.0,2.0,81,0.00,,,0.00,LWC V2.10 B1813,2013-02-16 22:50:00,
2013-02-16 13:55:00,-0.9,-5.3,30.64,ENE,68,1.0,3.0,81,0.00,,,0.00,LWC V2.10 B1813,2013-02-16 22:55:00,
2013-02-16 14:00:00,-0.8,-5.2,30.64,ENE,68,1.0,3.0,81,0.00,,,0.00,LWC V2.10 B1813,2013-02-16 23:00:00,
2013-02-16 14:05:00,-0.5,-4.9,30.64,ENE,67,2.0,3.0,81,0.00,,,0.00,LWC V2.10 B1813,2013-02-16 23:05:00,
2013-02-16 14:10:00,-0.3,-4.7,30.63,ENE,67,1.0,1.0,81,0.00,,,0.00,LWC V2.10 B1813,2013-02-16 23:10:00,
2013-02-16 14:15:00,0.0,-1.8,30.63,ENE,63,0.0,1.0,92,0.00,,,0.00,LWC V2.10 B1813,2013-02-16 23:15:00,
2013-02-16 14:20:00,0.5,-3.7,30.63,NE,55,0.0,2.0,82,0.00,,,0.00,LWC V2.10 B1813,2013-02-16 23:20:00,
2013-02-16 14:25:00,1.0,-3.2,30.63,NE,56,0.0,2.0,82,0.00,,,0.00,LWC V2.10 B1813,2013-02-16 23:25:00,
2013-02-16 14:30:00,1.4,-3.0,30.63,NE,55,1.0,1.0,81,0.00,,,0.00,LWC V2.10 B1813,2013-02-16 23:30:00,
2013-02-16 14:35:00,1.5,-3.2,30.63,NE,56,1.0,1.0,80,0.00,,,0.00,LWC V2.10 B1813,2013-02-16 23:35:00,
2013-02-16 14:40:00,1.5,-3.5,30.63,ENE,61,0.0,0.0,79,0.00,,,0.00,LWC V2.10 B1813,2013-02-16 23:40:00,
2013-02-16 14:45:00,1.2,-4.0,30.63,ENE,61,0.0,0.0,78,0.00,,,0.00,LWC V2.10 B1813,2013-02-16 23:45:00,
2013-02-16 14:50:00,1.0,-4.2,30.63,ENE,61,0.0,0.0,78,0.00,,,0.00,LWC V2.10 B1813,2013-02-16 23:50:00,
2013-02-16 14:55:00,1.1,-3.6,30.63,ENE,62,0.0,0.0,80,0.00,,,0.00,LWC V2.10 B1813,2013-02-16 23:55:00,
2013-02-16 15:00:00,1.6,-3.1,30.62,NE,34,3.0,3.0,80,0.00,,,0.00,LWC V2.10 B1813,2013-02-17 00:00:00,
2013-02-16 15:05:00,2.1,-2.9,30.62,NE,34,1.0,2.0,79,0.00,,,0.00,LWC V2.10 B1813,2013-02-17 00:05:00,
2013-02-16 15:10:00,2.4,-2.6,30.62,NE,34,0.0,2.0,79,0.00,,,0.00,LWC V2.10 B1813,2013-02-17 00:10:00,
2013-02-16 15:15:00,2.6,-2.7,30.62,NE,34,0.0,1.0,78,0.00,,,0.00,LWC V2.10 B1813,2013-02-17 00:15:00,
2013-02-16 15:20:00,2.6,-2.9,30.62,NE,34,0.0,1.0,77,0.00,,,0.00,LWC V2.10 B1813,2013-02-17 00:20:00,
2013-02-16 15:25:00,2.4,-3.4,30.62,NE,34,0.0,0.0,76,0.00,,,0.00,LWC V2.10 B1813,2013-02-17 00:25:00,
2013-02-16 15:30:00,2.4,-3.4,30.61,NE,34,0.0,0.0,76,0.00,,,0.00,LWC V2.10 B1813,2013-02-17 00:30:00,
2013-02-16 15:35:00,2.4,-2.9,30.61,NNE,33,0.0,2.0,78,0.00,,,0.00,LWC V2.10 B1813,2013-02-17 00:35:00,
2013-02-16 15:40:00,2.3,-3.2,30.61,NNE,31,1.0,1.0,77,0.00,,,0.00,LWC V2.10 B1813,2013-02-17 00:40:00,
2013-02-16 15:45:00,2.1,-3.4,30.61,NNE,31,0.0,0.0,77,0.00,,,0.00,LWC V2.10 B1813,2013-02-17 00:45:00,
2013-02-16 15:50:00,1.9,-3.6,30.61,NNE,30,0.0,0.0,77,0.00,,,0.00,LWC V2.10 B1813,2013-02-17 00:50:00,
2013-02-16 15:55:00,1.9,-3.9,30.61,NNE,30,0.0,0.0,76,0.00,,,0.00,LWC V2.10 B1813,2013-02-17 00:55:00,
2013-02-16 16:00:00,1.8,-4.0,30.60,NNE,30,0.0,0.0,76,0.00,,,0.00,LWC V2.10 B1813,2013-02-17 01:00:00,
2013-02-16 16:05:00,1.7,-4.1,30.60,NNE,32,0.0,0.0,76,0.00,,,0.00,LWC V2.10 B1813,2013-02-17 01:05:00,
2013-02-16 16:10:00,1.6,-4.2,30.60,NE,34,1.0,4.0,76,0.00,,,0.00,LWC V2.10 B1813,2013-02-17 01:10:00,
2013-02-16 16:15:00,1.4,-4.4,30.60,NE,34,2.0,3.0,76,0.00,,,0.00,LWC V2.10 B1813,2013-02-17 01:15:00,
2013-02-16 16:20:00,1.4,-4.4,30.60,NE,46,4.0,4.0,76,0.00,,,0.00,LWC V2.10 B1813,2013-02-17 01:20:00,
2013-02-16 16:25:00,1.3,-4.7,30.59,NE,45,2.0,2.0,75,0.00,,,0.00,LWC V2.10 B1813,2013-02-17 01:25:00,
2013-02-16 16:30:00,1.0,-5.0,30.59,NE,46,0.0,3.0,75,0.00,,,0.00,LWC V2.10 B1813,2013-02-17 01:30:00,
2013-02-16 16:35:00,0.8,-5.2,30.59,NE,36,3.0,3.0,75,0.00,,,0.00,LWC V2.10 B1813,2013-02-17 01:35:00,
2013-02-16 16:40:00,0.8,-5.2,30.59,NE,36,0.0,2.0,75,0.00,,,0.00,LWC V2.10 B1813,2013-02-17 01:40:00,
2013-02-16 16:45:00,0.7,-5.3,30.59,NNE,21,2.0,4.0,75,0.00,,,0.00,LWC V2.10 B1813,2013-02-17 01:45:00,
2013-02-16 16:50:00,0.6,-5.4,30.59,NNE,21,0.0,0.0,75,0.00,,,0.00,LWC V2.10 B1813,2013-02-17 01:50:00,
2013-02-16 16:55:00,0.5,-5.2,30.58,NNE,22,0.0,2.0,76,0.00,,,0.00,LWC V2.10 B1813,2013-02-17 01:55:00,
2013-02-16 17:00:00,0.3,-5.2,30.58,NNE,15,3.0,3.0,77,0.00,,,0.00,LWC V2.10 B1813,2013-02-17 02:00:00,
2013-02-16 17:05:00,0.1,-5.4,30.58,NNE,26,1.0,5.0,77,0.00,,,0.00,LWC V2.10 B1813,2013-02-17 02:05:00,
2013-02-16 17:10:00,0.1,-5.4,30.58,NNE,23,0.0,2.0,77,0.00,,,0.00,LWC V2.10 B1813,2013-02-17 02:10:00,
2013-02-16 17:15:00,0.0,-5.7,30.58,NNE,18,3.0,4.0,76,0.00,,,0.00,LWC V2.10 B1813,2013-02-17 02:15:00,
2013-02-16 17:20:00,0.0,-5.7,30.58,NNE,27,4.0,5.0,76,0.00,,,0.00,LWC V2.10 B1813,2013-02-17 02:20:00,
2013-02-16 17:25:00,0.0,-5.7,30.58,NE,34,5.0,5.0,76,0.00,,,0.00,LWC V2.10 B1813,2013-02-17 02:25:00,
2013-02-16 17:30:00,0.1,-5.9,30.57,NE,42,4.0,6.0,75,0.00,,,0.00,LWC V2.10 B1813,2013-02-17 02:30:00,
2013-02-16 17:35:00,0.2,-5.8,30.58,NNE,26,4.0,5.0,75,0.00,,,0.00,LWC V2.10 B1813,2013-02-17 02:35:00,
2013-02-16 17:40:00,0.2,-6.1,30.58,ENE,69,2.0,3.0,74,0.00,,,0.00,LWC V2.10 B1813,2013-02-17 02:40:00,
2013-02-16 17:45:00,0.0,-6.3,30.57,ENE,71,0.0,3.0,74,0.00,,,0.00,LWC V2.10 B1813,2013-02-17 02:45:00,
2013-02-16 17:50:00,-0.2,-6.2,30.57,ENE,59,2.0,3.0,75,0.00,,,0.00,LWC V2.10 B1813,2013-02-17 02:50:00,
2013-02-16 17:55:00,-0.3,-6.3,30.57,ENE,58,2.0,3.0,75,0.00,,,0.00,LWC V2.10 B1813,2013-02-17 02:55:00,
2013-02-16 18:00:00,-0.5,-6.5,30.57,NE,49,1.0,2.0,75,0.00,,,0.00,LWC V2.10 B1813,2013-02-17 03:00:00,
2013-02-16 18:05:00,-0.7,-6.7,30.57,NE,49,0.0,1.0,75,0.00,,,0.00,LWC V2.10 B1813,2013-02-17 03:05:00,
2013-02-16 18:10:00,-1.0,-6.7,30.57,NE,48,0.0,0.0,76,0.00,,,0.00,LWC V2.10 B1813,2013-02-17 03:10:00,
2013-02-16 18:15:00,-1.3,-7.0,30.57,NE,48,0.0,0.0,76,0.00,,,0.00,LWC V2.10 B1813,2013-02-17 03:15:00,
2013-02-16 18:20:00,-1.4,-6.8,30.56,NE,49,1.0,1.0,77,0.00,,,0.00,LWC V2.10 B1813,2013-02-17 03:20:00,
2013-02-16 18:25:00,-1.5,-6.9,30.56,NE,55,1.0,2.0,77,0.00,,,0.00,LWC V2.10 B1813,2013-02-17 03:25:00,
2013-02-16 18:30:00,-1.7,-7.1,30.56,NE,55,0.0,0.0,77,0.00,,,0.00,LWC V2.10 B1813,2013-02-17 03:30:00,
2013-02-16 18:35:00,-1.8,-7.0,30.56,NE,55,0.0,1.0,78,0.00,,,0.00,LWC V2.10 B1813,2013-02-17 03:35:00,
2013-02-16 18:40:00,-2.0,-7.1,30.55,NNE,27,0.0,2.0,78,0.00,,,0.00,LWC V2.10 B1813,2013-02-17 03:40:00,
2013-02-16 18:45:00,-2.1,-7.2,30.55,North,0,3.0,3.0,78,0.00,,,0.00,LWC V2.10 B1813,2013-02-17 03:45:00,
2013-02-16 18:50:00,-2.1,-7.2,30.55,NE,37,3.0,4.0,78,0.00,,,0.00,LWC V2.10 B1813,2013-02-17 03:50:00,
2013-02-16 18:55:00,-1.9,-7.0,30.55,NE,39,1.0,1.0,78,0.00,,,0.00,LWC V2.10 B1813,2013-02-17 03:55:00,
2013-02-16 19:00:00,-1.8,-7.0,30.55,NE,38,1.0,1.0,78,0.00,,,0.00,LWC V2.10 B1813,2013-02-17 04:00:00,
2013-02-16 19:05:00,-1.7,-6.9,30.55,NE,38,0.0,1.0,78,0.00,,,0.00,LWC V2.10 B1813,2013-02-17 04:05:00,
2013-02-16 19:10:00,-1.6,-7.0,30.55,NE,38,0.0,2.0,77,0.00,,,0.00,LWC V2.10 B1813,2013-02-17 04:10:00,
2013-02-16 19:15:00,-1.6,-7.0,30.54,NE,38,2.0,3.0,77,0.00,,,0.00,LWC V2.10 B1813,2013-02-17 04:15:00,
2013-02-16 19:20:00,-1.7,-7.1,30.54,NE,38,1.0,2.0,77,0.00,,,0.00,LWC V2.10 B1813,2013-02-17 04:20:00,
2013-02-16 19:25:00,-1.7,-7.1,30.54,NE,41,3.0,3.0,77,0.00,,,0.00,LWC V2.10 B1813,2013-02-17 04:25:00,
2013-02-16 19:30:00,-1.6,-7.0,30.54,NE,42,0.0,1.0,77,0.00,,,0.00,LWC V2.10 B1813,2013-02-17 04:30:00,
2013-02-16 19:35:00,-1.6,-7.0,30.54,NE,41,1.0,2.0,77,0.00,,,0.00,LWC V2.10 B1813,2013-02-17 04:35:00,
2013-02-16 19:40:00,-1.6,-7.0,30.54,NE,42,0.0,1.0,77,0.00,,,0.00,LWC V2.10 B1813,2013-02-17 04:40:00,
2013-02-16 19:45:00,-1.7,-7.1,30.54,NE,42,1.0,3.0,77,0.00,,,0.00,LWC V2.10 B1813,2013-02-17 04:45:00,
2013-02-16 19:50:00,-1.8,-7.2,30.54,NE,42,1.0,2.0,77,0.00,,,0.00,LWC V2.10 B1813,2013-02-17 04:50:00,
2013-02-16 19:55:00,-1.9,-7.3,30.53,NE,42,0.0,0.0,77,0.00,,,0.00,LWC V2.10 B1813,2013-02-17 04:55:00,
2013-02-16 20:00:00,-2.0,-7.4,30.53,NE,42,0.0,1.0,77,0.00,,,0.00,LWC V2.10 B1813,2013-02-17 05:00:00,
2013-02-16 20:05:00,-2.1,-7.2,30.53,NE,42,1.0,2.0,78,0.00,,,0.00,LWC V2.10 B1813,2013-02-17 05:05:00,
2013-02-16 20:10:00,-2.0,-7.1,30.53,NE,41,0.0,0.0,78,0.00,,,0.00,LWC V2.10 B1813,2013-02-17 05:10:00,
2013-02-16 20:15:00,-1.9,-7.0,30.53,NE,42,0.0,1.0,78,0.00,,,0.00,LWC V2.10 B1813,2013-02-17 05:15:00,
2013-02-16 20:20:00,-1.9,-7.0,30.52,NE,36,4.0,4.0,78,0.00,,,0.00,LWC V2.10 B1813,2013-02-17 05:20:00,
2013-02-16 20:25:00,-1.8,-7.0,30.52,NNE,24,3.0,3.0,78,0.00,,,0.00,LWC V2.10 B1813,2013-02-17 05:25:00,
2013-02-16 20:30:00,-1.5,-6.9,30.52,NNE,33,1.0,3.0,77,0.00,,,0.00,LWC V2.10 B1813,2013-02-17 05:30:00,
2013-02-16 20:35:00,-1.3,-6.7,30.52,NE,50,3.0,4.0,77,0.00,,,0.00,LWC V2.10 B1813,2013-02-17 05:35:00,
2013-02-16 20:40:00,-1.0,-6.7,30.52,NE,37,4.0,4.0,76,0.00,,,0.00,LWC V2.10 B1813,2013-02-17 05:40:00,
2013-02-16 20:45:00,-0.8,-6.5,30.51,NE,42,3.0,3.0,76,0.00,,,0.00,LWC V2.10 B1813,2013-02-17 05:45:00,
2013-02-16 20:50:00,-0.5,-6.2,30.51,NE,39,3.0,3.0,76,0.00,,,0.00,LWC V2.10 B1813,2013-02-17 05:50:00,
2013-02-16 20:53:00,-0.4,-6.4,30.51,NE,41,1.0,3.0,75,0.00,,,0.00,LWC V2.10 B1813,2013-02-17 05:53:00,
2013-02-16 20:58:00,-0.4,-6.4,30.51,NE,41,1.0,2.0,75,0.00,,,0.00,LWC V2.10 B1813,2013-02-17 05:58:00,
2013-02-16 21:00:00,-0.3,-6.3,30.51,NE,41,0.0,1.0,75,0.00,,,0.00,LWC V2.10 B1813,2013-02-17 06:00:00,
2013-02-16 21:02:00,-0.3,-6.3,30.51,NE,40,0.0,0.0,75,0.00,,,0.00,LWC V2.10 B1813,2013-02-17 06:02:00,
2013-02-16 21:07:00,-0.3,-6.3,30.51,NE,41,0.0,2.0,75,0.00,,,0.00,LWC V2.10 B1813,2013-02-17 06:07:00,
2013-02-16 21:12:00,-0.4,-6.4,30.50,NE,36,2.0,3.0,75,0.00,,,0.00,LWC V2.10 B1813,2013-02-17 06:12:00,
2013-02-16 21:17:00,-0.4,-6.1,30.50,NE,36,0.0,1.0,76,0.00,,,0.00,LWC V2.10 B1813,2013-02-17 06:17:00,
2013-02-16 21:22:00,-0.4,-6.1,30.51,NE,36,0.0,0.0,76,0.00,,,0.00,LWC V2.10 B1813,2013-02-17 06:22:00,
2013-02-16 21:27:00,-0.3,-6.0,30.50,NE,36,0.0,2.0,76,0.00,,,0.00,LWC V2.10 B1813,2013-02-17 06:27:00,
2013-02-16 21:32:00,-0.3,-6.0,30.51,NE,36,1.0,2.0,76,0.00,,,0.00,LWC V2.10 B1813,2013-02-17 06:32:00,
2013-02-16 21:37:00,-0.3,-6.0,30.50,NE,36,0.0,1.0,76,0.00,,,0.00,LWC V2.10 B1813,2013-02-17 06:37:00,
2013-02-16 21:42:00,-0.2,-5.9,30.50,NE,36,0.0,3.0,76,0.00,,,0.00,LWC V2.10 B1813,2013-02-17 06:42:00,
2013-02-16 21:47:00,-0.1,-5.8,30.50,NNE,24,0.0,1.0,76,0.00,,,0.00,LWC V2.10 B1813,2013-02-17 06:47:00,
2013-02-16 21:52:00,0.0,-5.5,30.50,NNE,22,0.0,1.0,77,0.00,,,0.00,LWC V2.10 B1813,2013-02-17 06:52:00,
2013-02-16 21:57:00,0.0,-5.5,30.50,NNE,22,0.0,0.0,77,0.00,,,0.00,LWC V2.10 B1813,2013-02-17 06:57:00,
2013-02-16 22:02:00,0.0,-5.7,30.50,NNE,22,0.0,1.0,76,0.00,,,0.00,LWC V2.10 B1813,2013-02-17 07:02:00,
2013-02-16 22:07:00,0.0,-5.7,30.50,NNE,24,0.0,0.0,76,0.00,,,0.00,LWC V2.10 B1813,2013-02-17 07:07:00,
2013-02-16 22:12:00,0.0,-5.7,30.50,NNE,25,0.0,2.0,76,0.00,,,0.00,LWC V2.10 B1813,2013-02-17 07:12:00,
2013-02-16 22:17:00,0.0,-5.7,30.50,NNE,25,2.0,3.0,76,0.00,,,0.00,LWC V2.10 B1813,2013-02-17 07:17:00,
2013-02-16 22:22:00,0.2,-5.3,30.49,NNE,26,0.0,2.0,77,0.00,,,0.00,LWC V2.10 B1813,2013-02-17 07:22:00,
2013-02-16 22:27:00,0.2,-5.3,30.49,NNE,26,1.0,2.0,77,0.00,,,0.00,LWC V2.10 B1813,2013-02-17 07:27:00,
2013-02-16 22:32:00,0.2,-5.3,30.49,NNE,25,1.0,2.0,77,0.00,,,0.00,LWC V2.10 B1813,2013-02-17 07:32:00,
2013-02-16 22:37:00,0.2,-5.3,30.48,NNE,26,0.0,1.0,77,0.00,,,0.00,LWC V2.10 B1813,2013-02-17 07:37:00,
2013-02-16 22:42:00,0.2,-5.3,30.48,NNE,26,0.0,2.0,77,0.00,,,0.00,LWC V2.10 B1813,2013-02-17 07:42:00,
2013-02-16 22:47:00,0.4,-5.1,30.48,NNE,26,2.0,2.0,77,0.00,,,0.00,LWC V2.10 B1813,2013-02-17 07:47:00,
2013-02-16 22:52:00,0.5,-5.0,30.47,NNE,27,1.0,3.0,77,0.00,,,0.00,LWC V2.10 B1813,2013-02-17 07:52:00,
2013-02-16 22:57:00,0.8,-5.0,30.47,NNE,26,0.0,2.0,76,0.00,,,0.00,LWC V2.10 B1813,2013-02-17 07:57:00,
2013-02-16 23:02:00,1.0,-4.8,30.47,NNE,27,0.0,1.0,76,0.00,,,0.00,LWC V2.10 B1813,2013-02-17 08:02:00,
2013-02-16 23:07:00,1.3,-4.7,30.47,NNE,27,0.0,0.0,75,0.00,,,0.00,LWC V2.10 B1813,2013-02-17 08:07:00,
2013-02-16 23:12:00,1.5,-4.6,30.47,NNE,26,0.0,0.0,75,0.00,,,0.00,LWC V2.10 B1813,2013-02-17 08:12:00,
2013-02-16 23:17:00,1.5,-4.6,30.47,NNE,26,0.0,0.0,75,0.00,,,0.00,LWC V2.10 B1813,2013-02-17 08:17:00,
2013-02-16 23:22:00,1.4,-4.7,30.47,NNE,27,0.0,1.0,75,0.00,,,0.00,LWC V2.10 B1813,2013-02-17 08:22:00,
2013-02-16 23:27:00,1.2,-5.1,30.46,NNE,27,0.0,0.0,74,0.00,,,0.00,LWC V2.10 B1813,2013-02-17 08:27:00,
2013-02-16 23:32:00,1.0,-5.0,30.46,NNE,26,0.0,1.0,75,0.00,,,0.00,LWC V2.10 B1813,2013-02-17 08:32:00,
2013-02-16 23:37:00,0.9,-5.1,30.46,NNE,29,2.0,2.0,75,0.00,,,0.00,LWC V2.10 B1813,2013-02-17 08:37:00,
2013-02-16 23:42:00,1.1,-4.9,30.46,NE,42,1.0,3.0,75,0.00,,,0.00,LWC V2.10 B1813,2013-02-17 08:42:00,
2013-02-16 23:47:00,1.3,-4.7,30.46,NE,42,0.0,2.0,75,0.00,,,0.00,LWC V2.10 B1813,2013-02-17 08:47:00,
2013-02-16 23:52:00,1.3,-4.7,30.45,NE,42,0.0,0.0,75,0.00,,,0.00,LWC V2.10 B1813,2013-02-17 08:52:00,
2013-02-16 23:57:00,1.3,-4.7,30.45,NE,42,0.0,1.0,75,0.00,,,0.00,LWC V2.10 B1813,2013-02-17 08:57:00,